Airfield :
LOGIN :

Register | Disclaimer

   EN    FR    IT 

 










Legend :    VFR   Marginal VFR   IFR   Intensive IFR   Very Intensive IFR
Visi :
Ceiling :
>= 8 km
>= 3000ft
5 to 8 km
1000 to 3000 ft
1500m to 5 km
500 to 1000 ft
800 to 1500m
200 to 500 ft
< 800m
< 200 ft
Symbols :   Thunderstorms  Fog  Heavy snow  Heavy precipitations  Wind > 20 kt
SIGMETs :     Misc.  Thunderstorms  Icing  Turbulence  Mountain Waves  Volcanic Ashes






- Airport Elevation : 392 ft
- IATA code : CDG


LFPG - Paris-Aeroport Charles De Gaulle

CURRENT METAR :
  • 232030Z 36005KT 9999 BKN027 15/11 Q1021 NOSIG

EXPIRED METARs :
  • 232000Z 01007KT 9999 BKN025 15/11 Q1021 NOSIG
  • 231930Z 02006KT 9999 BKN022 15/11 Q1021 NOSIG
  • 231900Z 02008KT 9999 BKN020 BKN048 15/11 Q1021 NOSIG
  • 231830Z 02009KT 350V090 9999 BKN016 BKN046 15/12 Q1021 NOSIG
  • 231800Z 02009KT 9999 BKN014 BKN046 15/11 Q1021 NOSIG

TAF TAF LFPG
Valid from the 23 at 18:00 until the 25 at 00:00 UTC


231700Z 2318/2424 01010KT 9999 BKN013 TX20/2413Z TN13/2403Z
BECMG 2318/2320 BKN020
BECMG 2421/2424 31005KT
ATIS : +33 1 48 62 10 92



MET'MAP, your aeronautical weather chart ! - Copyright ORBIFLY December 2007 - Disclaimer

ORBIFLY MET'MAP TEAM :

Programming & Development : Alexandra Zaïnal
Concept & original design : Baudouin d'Aumeries
Assistance for programming : Marc-Olivier Méhu
Technical & hardware support : Manuel Goepfert

Contact : metmap@orbifly.com




SOURCES & CREDITS :

   NOAA